Location: Unspecified
(51.0000°N, 12.0000°E)
Time: 16:53:03
(UTC+01:00)

N. Korean satellite - Pass Details

Date: 25 October 2019
Orbit: 456 x 506 km, 97.2° (Epoch: 12 November)

Event Time Altitude Azimuth Distance (km) Brightness Sun altitude
Rises 18:25:43 0° 177° (S) 2,471 10.3 -4.7°
Reaches altitude 10° 18:27:46 10° 182° (S) 1,607 9.4 -5.0°
Maximum altitude 18:31:08 52° 260° (W) 585 7.5 -5.6°
Drops below altitude 10° 18:34:35 10° 338° (NNW) 1,642 9.4 -6.1°
Sets 18:36:43 0° 344° (NNW) 2,533 10.3 -6.4°
